Tracking 32954 objects as of 19-Jan-2026
HD Live streaming from Space Station
objects crossing your sky now

COSMOS 1275 DEB

Track COSMOS 1275 DEB now!
10-day predictions


NORAD ID: 20089
Int'l Code: 1981-053MQ
Perigee: 826.3 km
Apogee: 893.4 km
Inclination: 82.7 °
Period: 102.0 minutes
Semi major axis: 7230 km
RCS: 0.0116 m2 (small)
Launch date: June 4, 1981
Source: Commonwealth of Independent States (former USSR) (CIS)
Launch site: PLESETSK MISSILE AND SPACE COMPLEX (PKMTR)

Note: This is SATELLITE DEBRIS
Your satellite tracking list
Your tracking list is empty




NASA's NSSDC Master Catalog

Two Line Element Set (TLE):
1 20089U 81053MK  26019.59243311  .00003324  00000-0  17915-2 0  9999
2 20089  82.7468 136.6973 0046390 178.7824 181.3474 14.11946340713327
Source of the keplerian elements: AFSPC